Weather History for Sturgeon Bay, WI

Change the Weather History Date:

Saturday, October 8, 2011

  Actual Average Record
Temperature  
Mean Temperature 68 °F -  
Max Temperature 75 °F 58 °F 84 °F (2007)
Min Temperature 60 °F 43 °F 25 °F (1989)
Cooling Degree Days 2    
Growing Degree Days 18 (Base 50)    
Moisture  
Dew Point 55 °F    
Average Humidity 69    
Maximum Humidity 77    
Minimum Humidity 53    
Precipitation  
Precipitation 0.00 in - - ()
Sea Level Pressure  
Sea Level Pressure 30.23 in    
Wind  
Wind Speed 11 mph (South)    
Max Wind Speed 16 mph    
Max Gust Speed 22 mph    
Visibility 10 miles    
Events      
Averages and records for this station are not official NWS values.
T = Trace of Precipitation, MM = Missing Value Source: NWS Daily Summary

Daily Weather History Graph

Daily Weather History Graph

Search for Another Location

Airport:

Trip Planner

Search our weather history database for the weather conditions in past years. The results will help you decide how hot, cold, wet, or windy it might be!

Date:

Astronomy

Oct. 08, 2011 Rise Set
Actual Time 6:56 AM CDT 6:17 PM CDT
Civil Twilight 6:26 AM CDT 6:47 PM CDT
Nautical Twilight 5:52 AM CDT 7:20 PM CDT
Astronomical Twilight 5:18 AM CDT 7:54 PM CDT
Moon 4:33 PM CDT (10/8) 3:36 AM CDT (10/8)
Length of Visible Light 12h 20m
Length of Day
11h 21m
Waxing Gibbous, 90% of the Moon is Illuminated
Oct 8
Waxing Gibbous
Oct 11
Full
Oct 19
Last Quarter
Oct 26
New
Nov 2
First Quarter

Hourly Weather History & Observations

Time (CDT) Temp. Dew Point Humidity Pressure Visibility Wind Dir Wind Speed Gust Speed Precip Events Conditions
12:15 AM 64.4 °F 53.6 °F 68% 30.16 in 10.0 mi South 16.1 mph 20.7 mph N/A   Clear
12:35 AM 64.4 °F 53.6 °F 68% 30.17 in 10.0 mi South 12.7 mph - N/A   Clear
1:15 AM 64.4 °F 53.6 °F 68% 30.18 in 10.0 mi South 10.4 mph - N/A   Clear
1:35 AM 64.4 °F 53.6 °F 68% 30.18 in 10.0 mi South 9.2 mph - N/A   Clear
1:55 AM 64.4 °F 53.6 °F 68% 30.19 in 10.0 mi SSW 10.4 mph - N/A   Clear
2:15 AM 64.4 °F 53.6 °F 68% 30.19 in 10.0 mi SSW 10.4 mph - N/A   Clear
2:35 AM 64.4 °F 53.6 °F 68% 30.20 in 10.0 mi South 10.4 mph - N/A   Clear
2:55 AM 62.6 °F 53.6 °F 72% 30.20 in 10.0 mi South 10.4 mph - N/A   Clear
3:15 AM 62.6 °F 53.6 °F 72% 30.21 in 10.0 mi SSW 10.4 mph - N/A   Clear
3:35 AM 62.6 °F 53.6 °F 72% 30.21 in 10.0 mi South 9.2 mph - N/A   Clear
3:55 AM 62.6 °F 53.6 °F 72% 30.21 in 10.0 mi South 9.2 mph - N/A   Clear
4:15 AM 62.6 °F 53.6 °F 72% 30.22 in 10.0 mi South 9.2 mph - N/A   Clear
4:35 AM 62.6 °F 53.6 °F 72% 30.22 in 10.0 mi South 9.2 mph - N/A   Clear
4:55 AM 60.8 °F 53.6 °F 77% 30.23 in 10.0 mi South 9.2 mph - N/A   Clear
5:15 AM 60.8 °F 53.6 °F 77% 30.23 in 10.0 mi South 8.1 mph - N/A   Clear
5:35 AM 60.8 °F 53.6 °F 77% 30.23 in 10.0 mi South 9.2 mph - N/A   Clear
5:55 AM 60.8 °F 53.6 °F 77% 30.24 in 10.0 mi South 9.2 mph - N/A   Clear
6:15 AM 60.8 °F 53.6 °F 77% 30.23 in 10.0 mi South 9.2 mph - N/A   Clear
6:35 AM 60.8 °F 53.6 °F 77% 30.24 in 10.0 mi South 11.5 mph - N/A   Clear
6:55 AM 60.8 °F 53.6 °F 77% 30.24 in 10.0 mi SSW 10.4 mph - N/A   Clear
7:15 AM 60.8 °F 53.6 °F 77% 30.24 in 10.0 mi South 10.4 mph - N/A   Clear
7:35 AM 60.8 °F 53.6 °F 77% 30.24 in 10.0 mi South 9.2 mph - N/A   Clear
7:55 AM 62.6 °F 53.6 °F 72% 30.25 in 10.0 mi South 9.2 mph - N/A   Clear
8:15 AM 62.6 °F 53.6 °F 72% 30.26 in 10.0 mi South 9.2 mph - N/A   Clear
8:35 AM 62.6 °F 53.6 °F 72% 30.26 in 10.0 mi South 10.4 mph - N/A   Clear
8:55 AM 64.4 °F 55.4 °F 73% 30.26 in 10.0 mi South 9.2 mph - N/A   Clear
9:15 AM 66.2 °F 55.4 °F 68% 30.27 in 10.0 mi South 11.5 mph 16.1 mph N/A   Clear
9:35 AM 66.2 °F 55.4 °F 68% 30.26 in 10.0 mi South 10.4 mph - N/A   Clear
9:55 AM 68.0 °F 55.4 °F 64% 30.27 in 10.0 mi SSW 11.5 mph - N/A   Clear
10:15 AM 69.8 °F 55.4 °F 60% 30.27 in 10.0 mi South 10.4 mph - N/A   Clear
10:35 AM 71.6 °F 55.4 °F 57% 30.25 in 10.0 mi South 13.8 mph 17.3 mph N/A   Clear
11:15 AM 73.4 °F 57.2 °F 57% 30.28 in 10.0 mi South 12.7 mph - N/A   Clear
11:35 AM 73.4 °F 57.2 °F 57% 30.27 in 10.0 mi SSE 9.2 mph 19.6 mph N/A   Clear
11:55 AM 73.4 °F 57.2 °F 57% 30.27 in 10.0 mi SSE 9.2 mph - N/A   Clear
12:15 PM 73.4 °F 57.2 °F 57% 30.27 in 10.0 mi South 9.2 mph - N/A   Clear
12:35 PM 73.4 °F 57.2 °F 57% 30.27 in 10.0 mi SSE 9.2 mph - N/A   Clear
12:55 PM 73.4 °F 59.0 °F 61% 30.27 in 10.0 mi SSE 10.4 mph - N/A   Clear
1:15 PM 73.4 °F 59.0 °F 61% 30.26 in 10.0 mi SSE 9.2 mph - N/A   Clear
1:35 PM 75.2 °F 57.2 °F 53% 30.25 in 10.0 mi South 9.2 mph - N/A   Clear
1:55 PM 75.2 °F 57.2 °F 53% 30.25 in 10.0 mi SSE 10.4 mph - N/A   Clear
2:15 PM 71.6 °F 57.2 °F 60% 30.25 in 10.0 mi SSE 12.7 mph - N/A   Clear
2:35 PM 71.6 °F 57.2 °F 60% 30.24 in 10.0 mi South 12.7 mph 16.1 mph N/A   Clear
2:55 PM 71.6 °F 57.2 °F 60% 30.24 in 10.0 mi SSE 11.5 mph - N/A   Clear
3:15 PM 71.6 °F 57.2 °F 60% 30.24 in 10.0 mi South 13.8 mph 18.4 mph N/A   Clear
3:35 PM 69.8 °F 57.2 °F 64% 30.24 in 10.0 mi South 15.0 mph 19.6 mph N/A   Clear
3:55 PM 69.8 °F 57.2 °F 64% 30.23 in 10.0 mi South 15.0 mph 21.9 mph N/A   Clear
4:15 PM 68.0 °F 57.2 °F 68% 30.23 in 10.0 mi South 16.1 mph 19.6 mph N/A   Clear
4:35 PM 66.2 °F 55.4 °F 68% 30.22 in 10.0 mi South 15.0 mph 21.9 mph N/A   Clear
4:55 PM 66.2 °F 55.4 °F 68% 30.22 in 10.0 mi South 16.1 mph 20.7 mph N/A   Clear
5:15 PM 66.2 °F 55.4 °F 68% 30.22 in 10.0 mi South 13.8 mph - N/A   Clear
5:35 PM 64.4 °F 55.4 °F 73% 30.21 in 10.0 mi South 12.7 mph - N/A   Clear
5:55 PM 64.4 °F 55.4 °F 73% 30.21 in 10.0 mi South 15.0 mph 20.7 mph N/A   Clear
6:15 PM 64.4 °F 55.4 °F 73% 30.21 in 10.0 mi South 13.8 mph - N/A   Clear
6:35 PM 64.4 °F 55.4 °F 73% 30.21 in 10.0 mi South 12.7 mph - N/A   Clear
6:55 PM 62.6 °F 55.4 °F 77% 30.22 in 10.0 mi South 10.4 mph 16.1 mph N/A   Clear
7:15 PM 62.6 °F 55.4 °F 77% 30.21 in 10.0 mi South 10.4 mph - N/A   Clear
7:35 PM 62.6 °F 55.4 °F 77% 30.21 in 10.0 mi South 11.5 mph - N/A   Clear
7:55 PM 62.6 °F 55.4 °F 77% 30.21 in 10.0 mi South 11.5 mph - N/A   Clear
8:15 PM 62.6 °F 55.4 °F 77% 30.22 in 10.0 mi South 12.7 mph - N/A   Clear
8:35 PM 64.4 °F 55.4 °F 73% 30.22 in 10.0 mi South 12.7 mph - N/A   Clear
9:15 PM 64.4 °F 55.4 °F 73% 30.22 in 10.0 mi South 10.4 mph - N/A   Clear
9:35 PM 64.4 °F 55.4 °F 73% 30.21 in 10.0 mi South 11.5 mph - N/A   Clear
9:55 PM 64.4 °F 55.4 °F 73% 30.21 in 10.0 mi South 10.4 mph - N/A   Clear
10:15 PM 64.4 °F 55.4 °F 73% 30.22 in 10.0 mi South 10.4 mph - N/A   Clear
10:35 PM 64.4 °F 55.4 °F 73% 30.23 in 10.0 mi SSW 9.2 mph - N/A   Clear
10:55 PM 64.4 °F 55.4 °F 73% 30.23 in 10.0 mi SSW 10.4 mph - N/A   Clear
11:15 PM 64.4 °F 55.4 °F 73% 30.23 in 10.0 mi SSW 10.4 mph - N/A   Clear
11:35 PM 64.4 °F 55.4 °F 73% 30.24 in 10.0 mi SSW 10.4 mph - N/A   Clear
11:55 PM 64.4 °F 55.4 °F 73% 30.24 in 10.0 mi SSW 9.2 mph - N/A   Clear